This demonstration page uses our WeatherBlox Daily Observations layout. Learn more.

39.92423, -83.80882

Hourly Observations for September 30, 2016

Temp ( °F °C ) Dew Point ( °F °C ) Humidity (%) Winds ( mph kmh ) Pressure ( in mb ) Visibility ( mi km ) Precip ( " mm )
12:26 am 00:26 Cloudy with Light Rain 57 14 57 14 100 100 Calm 30.09 1019 6 9.65604 0.02 0.508
12:38 am 00:38 Cloudy with Light Rain 57 14 57 14 100 100 WSW 3 6 30.09 1019 5 8.0467 0.04 1.016
12:48 am 00:48 Cloudy with Light Rain 57 14 57 14 100 100 WSW 3 6 30.09 1019 4 6.43736 0.05 1.27
12:56 am 00:56 Cloudy with Light Rain 57 13.9 57 13.9 100 100 SW 3 6 30.09 1019 4 6.43736 0.05 1.27
1:12 am 01:12 Cloudy with Light Rain 57 14 57 14 100 100 Calm 30.09 1019 4 6.43736 0.01 0.254
1:21 am 01:21 Cloudy with Light Rain 57 14 57 14 100 100 Calm 30.09 1019 6 9.65604 0.01 0.254
1:56 am 01:56 Partly Cloudy with Light Rain 56 13.3 55 12.8 97 97 N 7 11 30.06 1018 1 1.60934 0.02 0.508
1:59 am 01:59 Mostly Cloudy with Mist and Fog 55 13 55 13 100 100 N 7 11 30.06 1018 0.75 1.207005 0 0.0254
2:02 am 02:02 Mostly Cloudy with Fog 55 13 55 13 100 100 NNW 7 11 30.06 1018 0.5 0.80467 0 0.0254
2:12 am 02:12 Mostly Cloudy with Fog 55 13 55 13 100 100 N 7 11 30.06 1018 0.5 0.80467 0 0.0254
2:33 am 02:33 Cloudy with Fog 55 13 55 13 100 100 NNE 6 9 30.03 1017 0.25 0.402335 0 0.0254
2:56 am 02:56 Cloudy with Fog 54 12.2 54 12.2 100 100 ENE 6 9 30.04 1017 0.25 0.402335 0 0.0254
3:16 am 03:16 Mostly Cloudy with Mist and Fog 54 12 54 12 100 100 NE 10 17 30.03 1017 0.75 1.207005 0 0
3:20 am 03:20 Mostly Cloudy with Mist and Fog 55 13 54 12 94 94 NE 10 17 30.03 1017 1.25 2.011675 0 0
3:27 am 03:27 Mostly Cloudy with Mist and Fog 55 13 55 13 100 100 NE 10 17 30.03 1017 0.75 1.207005 0.01 0.254
3:33 am 03:33 Mostly Cloudy with Mist and Fog 55 13 55 13 100 100 NE 15 24 30.03 1017 1.25 2.011675 0.01 0.254
3:37 am 03:37 Partly Cloudy with Mist and Fog 57 14 55 13 94 94 NE 15 24 30.03 1017 4 6.43736 0.01 0.254
3:48 am 03:48 Mostly Cloudy with Mist and Fog 57 14 57 14 100 100 NE 13 20 30.03 1017 5 8.0467 0.01 0.254
3:56 am 03:56 Mostly Cloudy with Mist and Fog 57 13.9 57 13.9 100 100 NE 12 19 30.02 1017 5 8.0467 0.01 0.254
4:17 am 04:17 Partly Cloudy 57 14 57 14 100 100 NNE 14 22 30 1016 10 16.0934 0 0
4:39 am 04:39 Mostly Cloudy 57 14 57 14 100 100 E 7 11 30.03 1017 10 16.0934 0 0
4:56 am 04:56 Cloudy 58 14.4 57 13.9 97 97 NE 5 7 30.03 1017 10 16.0934 0 0
5:03 am 05:03 Cloudy 57 14 57 14 100 100 NNE 6 9 30.03 1017 10 16.0934 0 0
5:47 am 05:47 Cloudy with Mist and Fog 57 14 57 14 100 100 E 3 6 30.03 1017 2.5 4.02335 0 0
5:56 am 05:56 Cloudy with Mist and Fog 58 14.4 58 14.4 100 100 ENE 5 7 30.02 1017 1.75 2.816345 0 0
6:03 am 06:03 Cloudy with Mist and Fog 57 14 57 14 100 100 NE 3 6 30.03 1017 2.5 4.02335 0 0
6:11 am 06:11 Cloudy with Mist and Fog 59 15 57 14 94 94 E 3 6 30.03 1017 5 8.0467 0 0
6:35 am 06:35 Cloudy with Mist and Fog 59 15 59 15 100 100 E 6 9 30.03 1017 2 3.21868 0 0
6:56 am 06:56 Cloudy with Mist and Fog 60 15.6 59 15 96 96 E 5 7 30.02 1017 2.5 4.02335 0 0
7:21 am 07:21 Cloudy with Mist and Fog 61 16 59 15 94 94 E 7 11 30.03 1017 4 6.43736 0 0
7:56 am 07:56 Cloudy with Light Rain 60 15.6 60 15.6 100 100 SE 5 7 30.02 1017 8 12.87472 0 0.0254
8:04 am 08:04 Cloudy 61 16 61 16 100 100 ESE 9 15 30.03 1017 8 12.87472 0 0.0254
8:56 am 08:56 Cloudy 61 16.1 59 15 93 93 E 9 15 30.04 1017 10 16.0934 0 0.0254
9:16 am 09:16 Cloudy 61 16 59 15 94 94 ENE 8 13 30.03 1017 10 16.0934 0 0
9:36 am 09:36 Cloudy 61 16 59 15 94 94 E 7 11 30.03 1017 10 16.0934 0 0
9:56 am 09:56 Cloudy with Light Rain 61 16.1 59 15 93 93 E 10 17 30.04 1017 4 6.43736 0 0.0254
10:06 am 10:06 Cloudy with Light Rain 61 16 59 15 94 94 E 9 15 30.03 1017 2.5 4.02335 0 0.0254
10:20 am 10:20 Cloudy with Light Rain 61 16 59 15 94 94 E 8 13 30.03 1017 4 6.43736 0 0.0254
10:26 am 10:26 Cloudy with Light Rain 61 16 59 15 94 94 E 8 13 30.03 1017 8 12.87472 0 0.0254
10:41 am 10:41 Cloudy with Light Rain 61 16 59 15 94 94 E 6 9 30.03 1017 8 12.87472 0.01 0.254
10:56 am 10:56 Cloudy 61 16.1 60 15.6 97 97 E 8 13 30.05 1018 10 16.0934 0.01 0.254
11:54 am 11:54 Cloudy with Light Rain 61 16 59 15 94 94 ENE 10 17 30.03 1017 10 16.0934 0.01 0.254
11:56 am 11:56 Cloudy with Light Rain 61 16.1 59 15 93 93 ENE 12 19 30.04 1017 10 16.0934 0.01 0.254
12:07 pm 12:07 Cloudy with Light Rain 61 16 59 15 94 94 ENE 12 19 30.03 1017 10 16.0934 0 0.0254
12:38 pm 12:38 Cloudy with Mist and Fog 61 16 61 16 100 100 ENE 13 20 30.03 1017 5 8.0467 0 0.0254
12:56 pm 12:56 Cloudy 62 16.7 60 15.6 93 93 ENE 8 13 30.03 1017 10 16.0934 0 0.0254
1:56 pm 13:56 Cloudy 61 16.1 59 15 93 93 ENE 9 15 30.01 1016 10 16.0934 0 0.0254
2:56 pm 14:56 Cloudy with Light Rain 61 16.1 59 15 93 93 E 12 19 30.01 1016 10 16.0934 0 0.0254
3:12 pm 15:12 Cloudy 61 16 59 15 94 94 ENE 10 17 30 1016 10 16.0934 0 0.0254
3:56 pm 15:56 Cloudy 62 16.7 61 16.1 96 96 ENE 10 17 30 1016 10 16.0934 0.03 0.762
4:54 pm 16:54 Cloudy 63 17 61 16 94 94 ENE 9 15 30 1016 10 16.0934 0 0
4:56 pm 16:56 Cloudy 62 16.7 60 15.6 93 93 ENE 10 17 30 1016 10 16.0934 0 0
5:11 pm 17:11 Cloudy 63 17 61 16 94 94 ENE 9 15 30 1016 10 16.0934 0 0
5:45 pm 17:45 Cloudy with Light Rain 63 17 61 16 94 94 E 7 11 30 1016 10 16.0934 0 0.0254
5:56 pm 17:56 Cloudy 62 16.7 60 15.6 93 93 E 6 9 30.02 1017 10 16.0934 0 0.0254
6:04 pm 18:04 Cloudy 61 16 59 15 94 94 E 6 9 30.03 1017 10 16.0934 0 0
6:13 pm 18:13 Cloudy 63 17 61 16 94 94 E 6 9 30.03 1017 10 16.0934 0 0
6:20 pm 18:20 Cloudy 63 17 61 16 94 94 E 6 9 30.03 1017 10 16.0934 0 0
6:56 pm 18:56 Partly Cloudy 60 15.6 59 15 96 96 Calm 30.01 1016 10 16.0934 0 0
7:56 pm 19:56 Mostly Cloudy 58 14.4 58 14.4 100 100 SE 3 6 30.02 1017 10 16.0934 0 0
8:56 pm 20:56 Partly Cloudy with Mist and Fog 57 13.9 56 13.3 96 96 E 5 7 30.03 1017 1 1.60934 0 0
8:59 pm 20:59 Partly Cloudy with Fog 55 13 55 13 100 100 E 3 6 30.03 1017 0.5 0.80467 0 0
9:09 pm 21:09 Mostly Cloudy with Fog 55 13 55 13 100 100 Calm 30.03 1017 0.25 0.402335 0 0
9:27 pm 21:27 Cloudy with Fog 55 13 55 13 100 100 SE 3 6 30.03 1017 0.25 0.402335 0 0
9:38 pm 21:38 Partly Cloudy with Fog 57 14 57 14 100 100 SE 3 6 30.03 1017 0.5 0.80467 0 0
9:44 pm 21:44 Mostly Cloudy with Fog 57 14 57 14 100 100 SSE 3 6 30.03 1017 0.25 0.402335 0 0
9:51 pm 21:51 Mostly Cloudy with Fog 57 14 57 14 100 100 S 5 7 30.03 1017 0.25 0.402335 0 0
9:56 pm 21:56 Mostly Cloudy with Mist and Fog 57 13.9 57 13.9 100 100 S 6 9 30.03 1017 0.75 1.207005 0 0
9:58 pm 21:58 Mostly Cloudy with Mist and Fog 57 14 57 14 100 100 S 5 7 30.03 1017 1.25 2.011675 0 0
10:12 pm 22:12 Cloudy with Mist and Fog 57 14 57 14 100 100 S 3 6 30.03 1017 3 4.82802 0 0
10:56 pm 22:56 Clear 56 13.3 56 13.3 100 100 Calm 30.02 1017 9 14.48406 0 0
11:11 pm 23:11 Clear with Mist and Fog 54 12 54 12 100 100 NE 3 6 30.03 1017 1.75 2.816345 0 0
11:15 pm 23:15 Clear with Mist and Fog 54 12 54 12 100 100 Calm 30.03 1017 0.75 1.207005 0 0
11:23 pm 23:23 Mostly Cloudy with Fog 54 12 54 12 100 100 ESE 3 6 30.03 1017 0.5 0.80467 0 0
11:30 pm 23:30 Mostly Cloudy with Fog 54 12 52 11 94 94 E 5 7 30.03 1017 0.25 0.402335 0 0
11:37 pm 23:37 Mostly Cloudy with Fog 54 12 54 12 100 100 SE 5 7 30.03 1017 0.5 0.80467 0 0
11:46 pm 23:46 Mostly Cloudy with Mist and Fog 54 12 54 12 100 100 S 3 6 30.03 1017 1 1.60934 0 0
11:49 pm 23:49 Mostly Clear with Mist and Fog 54 12 54 12 100 100 S 3 6 30.03 1017 2.5 4.02335 0 0
11:56 pm 23:56 Partly Cloudy 54 12.2 54 12.2 100 100 S 3 6 30.03 1017 7 11.26538 0 0

Powered by AerisWeather